Vorticity
7 -3 2 4 6 3 11 4 10 17 6 9 2 11 11 12 6 7 8 10 10 13 7 6 11 4 11 15 13 7 8 -1 -0 7 3 5 3 4 8 11 8 8 8 8
8 9 1 1 6 1 -2 0 1 21 10 28 8 6 7 13 12 6 6 9 17 11 10 8 -3 15 13 -1 -0 5 1 17 -6 3 2 6 5 4 7 10 11 9 7 7
0 -0 20 4 4 15 12 5 -5 -0 21 2 1 17 -2 1 13 10 6 5 7 16 13 11 8 5 0 4 9 10 -6 4 6 10 8 5 5 4 7 9 12 9 8 8
23 11 15 12 4 9 3 1 8 4 21 -22 25 6 19 17 18 19 19 11 14 10 15 13 9 8 4 5 5 4 2 6 7 8 7 6 7 6 8 10 13 11 9 10
2 38 5 -2 18 1 13 3 6 14 12 -10 17 -14 49 17 8 6 9 19 13 13 12 16 12 8 9 7 5 3 12 9 6 7 7 7 7 9 9 11 13 12 11 8
6 -5 19 -0 5 22 -4 5 20 20 26 21 -3 -16 25 -1 -1 5 15 10 16 10 9 10 16 12 10 6 5 12 9 5 6 6 7 8 7 9 12 10 13 9 9 9
4 7 -6 13 13 -10 14 12 4 11 8 8 25 26 -20 -1 16 31 20 15 2 26 8 7 11 13 10 10 10 9 5 5 5 5 6 7 8 10 10 13 9 10 11 11
36 55 7 5 -6 9 2 0 -37 2 8 16 12 10 -7 9 24 6 -3 13 15 7 25 12 9 12 6 8 7 5 4 4 3 5 7 9 9 11 10 10 8 8 8 6
19 23 -4 48 15 -4 22 15 -4 -40 -23 16 3 45 21 17 14 12 10 -2 4 28 9 18 8 9 11 8 6 4 5 4 5 7 8 9 9 10 9 10 8 6 6 7
26 13 12 23 28 28 -18 -1 22 1 15 6 24 -4 -29 21 10 1 3 16 9 6 5 17 12 9 6 5 5 5 5 5 7 9 10 9 10 10 10 9 9 11 14 16
1 31 7 34 15 8 24 -9 9 29 -45 -7 8 23 27 -1 -8 2 19 9 10 11 11 4 20 10 9 8 8 7 7 9 10 11 11 11 11 11 11 12 13 13 11 9
3 -5 -21 13 -1 28 14 25 -0 -32 34 39 -45 17 -11 50 29 5 12 7 10 16 10 11 14 15 14 14 14 12 11 11 11 11 11 11 11 12 12 11 10 9 8 8
-9 2 15 20 54 44 31 26 3 -4 9 11 -21 52 -9 -31 35 41 14 2 9 9 10 13 12 12 14 17 16 15 13 12 12 11 11 10 10 10 10 9 8 8 7 6
-1 20 -0 -31 -32 -32 4 26 12 1 37 7 3 -10 6 30 -6 -43 14 24 28 19 19 14 13 18 14 13 14 13 13 12 11 10 9 9 9 9 8 8 8 7 7 7
22 11 6 6 8 9 10 9 21 14 17 26 29 7 -23 11 15 14 11 -6 -29 -11 4 18 17 17 16 14 15 14 13 11 9 9 9 9 9 8 8 7 7 7 7 7
11 10 15 12 11 18 10 8 17 9 9 12 7 20 36 10 -14 4 16 25 31 22 7 9 11 8 8 11 13 13 11 9 9 9 9 9 9 8 7 8 7 3 -2 -3
-1 -7 5 19 18 34 53 17 33 27 21 8 16 40 -21 9 27 7 -17 -21 -3 5 10 16 12 12 10 11 11 10 10 10 10 10 10 10 10 7 2 1 3 11 14 14
6 6 27 3 12 31 2 20 12 4 -4 0 0 22 20 35 -4 7 21 5 19 12 4 6 6 9 12 12 11 9 9 8 9 7 2 2 6 9 12 13 13 14 8 4
24 29 -6 -21 12 -23 -26 -16 2 16 21 28 19 21 19 30 21 19 28 22 13 11 12 11 14 13 12 11 10 7 6 9 15 15 12 11 12 12 14 10 5 4 5 7
26 25 -9 14 2 -3 40 49 51 13 6 -3 2 7 13 32 26 4 10 5 3 16 15 15 13 16 18 17 16 17 15 13 12 11 10 12 10 5 3 4 6 7 8 7
8 18 10 8 -14 19 4 6 16 11 12 21 29 20 15 14 20 3 21 19 18 17 23 24 21 19 14 13 14 12 10 10 9 10 12 7 3 5 7 8 7 7 6 7
22 10 23 38 9 21 -3 9 18 -2 3 18 6 11 12 23 16 10 19 24 19 21 19 17 14 12 13 11 10 10 10 13 11 5 4 5 7 8 7 6 7 8 8 7
34 26 5 -26 6 -27 -22 21 27 10 2 6 6 10 16 15 21 19 22 22 27 23 16 12 13 14 12 10 9 10 7 4 3 6 7 7 6 7 8 8 8 8 8 9
9 2 10 8 11 7 7 5 18 17 13 13 10 16 18 17 19 24 27 25 18 15 16 15 10 9 9 10 8 5 4 7 8 6 6 8 9 8 8 8 9 9 11 12
-5 12 7 9 2 16 16 28 23 21 18 19 21 21 22 19 25 31 26 21 16 12 11 8 7 10 6 4 5 7 7 6 7 8 8 8 8 8 9 10 12 13 14 13
12 10 22 15 13 11 12 18 11 16 28 25 26 24 23 30 32 24 18 12 11 7 9 8 5 5 7 8 7 8 9 9 8 8 8 9 10 12 14 15 14 14 14 13
Height
3059 3061 3059 3065 3069 3072 3075 3075 3075 3074 3074 3077 3078 3081 3085 3086 3084 3086 3087 3093 3096 3100 3106 3108 3112 3116 3121 3124 3127 3131 3134 3135 3135 3137 3137 3139 3139 3141 3141 3140 3140 3142 3142 3144
3057 3054 3061 3065 3068 3070 3073 3073 3074 3074 3076 3079 3077 3078 3082 3080 3080 3081 3083 3087 3090 3093 3097 3101 3107 3111 3115 3119 3122 3126 3128 3129 3131 3132 3133 3135 3134 3135 3136 3136 3136 3137 3138 3139
3050 3052 3058 3060 3063 3065 3067 3068 3071 3074 3077 3076 3076 3073 3070 3072 3072 3074 3077 3082 3082 3085 3090 3095 3100 3103 3109 3112 3116 3119 3120 3123 3125 3127 3128 3129 3129 3130 3131 3131 3131 3132 3133 3135
3048 3050 3052 3055 3056 3062 3061 3066 3069 3070 3071 3069 3069 3062 3063 3066 3066 3068 3070 3073 3076 3079 3081 3086 3090 3096 3101 3106 3109 3111 3114 3117 3118 3121 3122 3123 3124 3124 3125 3126 3126 3127 3128 3130
3041 3044 3046 3046 3049 3056 3056 3063 3064 3063 3063 3062 3062 3063 3053 3058 3058 3060 3062 3062 3065 3070 3073 3076 3082 3089 3093 3097 3101 3104 3107 3109 3112 3114 3116 3116 3117 3119 3119 3120 3121 3122 3123 3124
3037 3041 3043 3043 3046 3050 3055 3057 3057 3056 3057 3055 3053 3056 3043 3046 3051 3052 3054 3056 3058 3061 3064 3067 3073 3079 3084 3088 3092 3096 3099 3102 3105 3107 3108 3109 3110 3112 3114 3115 3116 3117 3118 3120
3033 3030 3034 3038 3039 3043 3046 3049 3050 3051 3050 3041 3047 3048 3030 3038 3041 3044 3046 3049 3050 3052 3055 3060 3064 3069 3074 3078 3083 3088 3091 3095 3098 3100 3101 3103 3104 3105 3107 3109 3111 3112 3113 3115
3025 3024 3023 3026 3028 3032 3034 3038 3039 3038 3036 3037 3042 3028 3023 3030 3034 3037 3039 3040 3042 3046 3050 3055 3058 3062 3066 3071 3075 3079 3084 3087 3090 3093 3095 3096 3098 3100 3102 3103 3106 3108 3108 3109
3019 3013 3015 3017 3020 3026 3027 3026 3032 3033 3030 3032 3025 3019 3021 3024 3027 3028 3030 3032 3035 3038 3042 3046 3051 3056 3060 3064 3069 3073 3077 3080 3083 3086 3088 3090 3092 3094 3095 3098 3100 3101 3103 3104
3011 3008 3007 3009 3013 3016 3016 3023 3027 3026 3023 3023 3015 3013 3013 3015 3018 3020 3022 3024 3026 3030 3035 3038 3043 3048 3053 3057 3061 3065 3069 3073 3076 3079 3081 3083 3085 3087 3090 3092 3094 3096 3098 3099
3005 3003 3000 3003 3000 2999 3006 3010 3012 3014 3012 3008 3010 3002 3006 3010 3012 3014 3015 3017 3019 3023 3027 3032 3036 3041 3045 3049 3053 3057 3061 3064 3068 3071 3074 3077 3079 3082 3084 3086 3089 3091 3092 3094
3006 3000 2997 2995 2994 2995 2997 2996 2998 2998 2996 2997 3002 2992 2999 3000 3002 3005 3008 3011 3013 3017 3021 3026 3030 3033 3038 3042 3046 3050 3054 3057 3061 3064 3067 3070 3073 3076 3078 3080 3083 3085 3087 3089
2999 2997 2994 2988 2990 2987 2988 2989 2991 2992 2992 2988 2995 2980 2994 2996 2996 2998 3003 3006 3009 3012 3015 3019 3022 3027 3031 3035 3038 3043 3047 3051 3055 3058 3061 3064 3068 3070 3073 3075 3078 3080 3082 3084
2994 2992 2993 2991 2987 2984 2981 2982 2984 2984 2979 2975 2974 2980 2985 2989 2993 2996 2999 3003 3004 3006 3009 3012 3016 3019 3024 3028 3032 3036 3040 3044 3048 3052 3056 3059 3062 3065 3068 3070 3072 3075 3077 3078
2989 2986 2985 2983 2980 2980 2978 2976 2975 2975 2976 2973 2968 2974 2978 2984 2986 2989 2993 2997 2999 3001 3003 3006 3010 3014 3018 3022 3025 3029 3033 3038 3043 3047 3051 3054 3057 3060 3063 3065 3067 3069 3071 3072
2982 2979 2978 2974 2974 2973 2969 2968 2968 2968 2968 2966 2967 2967 2970 2976 2979 2982 2984 2988 2993 2995 2999 3002 3005 3008 3011 3015 3019 3024 3029 3034 3038 3042 3045 3049 3052 3055 3057 3060 3062 3063 3064 3065
2977 2975 2973 2967 2969 2967 2961 2959 2959 2960 2960 2959 2958 2960 2963 2966 2970 2975 2980 2982 2987 2991 2994 2997 2999 3004 3006 3009 3014 3018 3023 3028 3032 3035 3039 3043 3047 3049 3052 3054 3056 3057 3057 3058
2966 2968 2969 2964 2966 2964 2954 2953 2953 2950 2953 2953 2952 2953 2955 2959 2963 2966 2971 2975 2980 2984 2986 2990 2993 2996 3000 3004 3008 3012 3016 3021 3026 3030 3034 3037 3041 3044 3047 3048 3049 3050 3050 3051
2956 2957 2959 2958 2955 2951 2948 2947 2948 2947 2945 2945 2946 2946 2947 2948 2952 2956 2961 2965 2970 2974 2977 2981 2985 2989 2993 2996 3001 3007 3013 3019 3023 3027 3031 3034 3037 3039 3041 3042 3043 3044 3044 3044
2946 2947 2951 2951 2950 2947 2940 2940 2940 2940 2938 2939 2938 2940 2941 2942 2942 2947 2952 2958 2962 2965 2969 2973 2978 2982 2989 2996 3002 3007 3011 3016 3020 3023 3026 3029 3031 3033 3036 3037 3037 3037 3037 3035
2942 2941 2939 2940 2941 2937 2936 2936 2936 2937 2934 2928 2929 2932 2935 2937 2941 2943 2945 2949 2953 2958 2963 2968 2975 2982 2988 2993 2999 3003 3008 3012 3017 3020 3022 3025 3027 3030 3031 3031 3030 3029 3028 3026
2937 2938 2935 2935 2934 2933 2932 2930 2933 2930 2926 2927 2927 2928 2929 2931 2933 2936 2940 2944 2949 2952 2957 2964 2972 2979 2985 2991 2997 3002 3007 3011 3014 3016 3019 3022 3023 3024 3024 3023 3022 3020 3018 3015
2931 2932 2932 2932 2925 2925 2926 2927 2926 2924 2924 2924 2925 2925 2926 2927 2929 2933 2936 2939 2945 2951 2958 2965 2973 2979 2985 2991 2996 3001 3004 3008 3011 3014 3015 3016 3017 3017 3016 3015 3013 3010 3007 3004
2929 2928 2926 2926 2922 2921 2921 2922 2921 2919 2918 2919 2920 2921 2922 2923 2925 2929 2933 2938 2944 2952 2960 2967 2973 2980 2986 2991 2995 3000 3003 3006 3008 3009 3010 3010 3011 3009 3008 3006 3003 3000 2997 2992
2927 2925 2922 2920 2917 2915 2915 2916 2916 2916 2914 2914 2915 2917 2919 2921 2924 2929 2934 2941 2948 2955 2961 2968 2975 2981 2986 2990 2994 2998 3001 3002 3004 3005 3005 3005 3004 3002 2999 2996 2993 2990 2987 2984
2921 2919 2917 2915 2913 2912 2911 2910 2909 2909 2910 2910 2912 2913 2916 2922 2926 2932 2938 2946 2953 2959 2965 2971 2977 2982 2986 2990 2993 2995 2997 2999 3000 3000 3000 2998 2996 2994 2991 2988 2985 2982 2979 2975